Simultaneous Nadir Overpasses (SNOs) Predictions

Prediction of SNOs between NOAA-20 and AQUA Satellite Orbit:

Table of predicted SNOs for the next 14.0 days since TLE Epoch: 7/16/2022
Index Date (NOAA-20) Time (NOAA-20) Lat,Lon (NOAA-20) SZA (NOAA-20 ) Date (AQUA) Time (AQUA) Lat,Lon (AQUA) SZA (AQUA ) Distance(km) Time Diff (sec)
1 07/18/2022 09:31:05 78.35, -73.77 73.86 07/18/2022 09:32:07 78.34, -73.87 73.84 2.28 62
2 07/18/2022 10:21:39 -78.80, 96.24 106.80 07/18/2022 10:21:23 -78.79, 96.17 106.78 1.60 16
3 07/21/2022 01:47:52 78.59, 43.39 74.00 07/21/2022 01:47:55 78.59, 43.47 73.99 1.75 3
4 07/21/2022 02:38:00 -79.88,-139.48 108.14 07/21/2022 02:36:46 -79.97,-139.78 108.06 10.96 74
5 07/23/2022 17:14:03 -78.51, -8.59 105.37 07/23/2022 17:14:25 -78.52, -8.55 105.39 1.07 22
6 07/23/2022 18:04:37 78.89, 161.09 74.07 07/23/2022 18:03:41 78.90, 161.22 74.09 3.07 56
7 07/26/2022 08:40:10 78.52, -60.08 75.19 07/26/2022 08:40:51 78.52, -60.13 75.17 1.17 41
8 07/26/2022 09:30:46 -78.89, 109.54 105.37 07/26/2022 09:30:09 -78.89, 109.56 105.34 0.32 37
9 07/29/2022 00:06:22 -78.37,-112.52 104.00 07/29/2022 00:07:21 -78.37,-112.52 104.04 0.05 59



Historial Predications of SNOs between NOAA-20 and AQUA
